DLH52EL EDDH-EDDP

Flight info

Callsign DLH52EL
Flight time 0h 37m
Altitude 23000
Route AMLUH2G/33 AMLUH M852 DENIX Z113 SAS Z88 UPDAT T236 ADMOS T959 KOJEC KOJEC1V
Aircraft A320/M-SDE3FGHIRWY/LB1

Departure

Time 2026-04-23 18:58
Airport Hamburg Helmut Schmidt Airport (EDDH)

Arrival

Time 2026-04-23 19:35
Airport Leipzig/Halle Airport (EDDP)
Time Latitude Longitude Altitude Speed Heading
2026-04-23 18:31 53.63075 10.00375 51 ft 0 kts 99°
2026-04-23 18:51 53.63075 10.00373 51 ft 2 kts 99°
2026-04-23 18:51 53.63080 10.00330 49 ft 4 kts 102°
2026-04-23 18:51 53.63086 10.00286 46 ft 4 kts 108°
2026-04-23 18:51 53.63096 10.00246 47 ft 4 kts 129°
2026-04-23 18:52 53.63112 10.00226 46 ft 1 kts 174°
2026-04-23 18:52 53.63113 10.00226 46 ft 0 kts 174°
2026-04-23 18:55 53.63109 10.00226 51 ft 3 kts 174°
2026-04-23 18:55 53.63058 10.00212 51 ft 11 kts 208°
2026-04-23 18:55 53.62993 10.00141 51 ft 12 kts 212°
2026-04-23 18:55 53.62919 10.00061 49 ft 14 kts 212°
2026-04-23 18:56 53.62863 10.00018 50 ft 13 kts 224°
2026-04-23 18:56 53.62842 9.99953 50 ft 3 kts 243°
2026-04-23 18:56 53.62822 9.99889 50 ft 9 kts 243°
2026-04-23 18:56 53.62830 9.99776 47 ft 12 kts 324°
2026-04-23 18:57 53.62906 9.99707 50 ft 14 kts 333°
2026-04-23 18:57 53.63139 9.99505 50 ft 72 kts 333°
2026-04-23 18:57 53.63771 9.98957 48 ft 130 kts 333°
2026-04-23 18:57 53.64651 9.98106 394 ft 148 kts 325°
2026-04-23 18:58 53.65570 9.97371 1195 ft 144 kts 336°
2026-04-23 18:58 53.66531 9.96648 1717 ft 161 kts 333°
2026-04-23 18:58 53.67606 9.95748 2115 ft 183 kts 333°
2026-04-23 18:58 53.68777 9.94805 2868 ft 190 kts 341°
2026-04-23 18:59 53.70105 9.94629 3698 ft 195 kts
2026-04-23 18:59 53.71462 9.94738 4567 ft 198 kts 360°
2026-04-23 18:59 53.72792 9.95449 4921 ft 211 kts 34°
2026-04-23 18:59 53.73645 9.97531 4996 ft 224 kts 60°
2026-04-23 19:00 53.74137 10.00055 5004 ft 228 kts 69°
2026-04-23 19:00 53.74170 10.02784 5016 ft 240 kts 95°
2026-04-23 19:00 53.73589 10.05581 5022 ft 275 kts 115°
2026-04-23 19:00 53.72570 10.08447 5016 ft 290 kts 117°
2026-04-23 19:01 53.71369 10.11244 5732 ft 300 kts 135°
2026-04-23 19:01 53.69584 10.13088 6646 ft 306 kts 159°
2026-04-23 19:01 53.67580 10.14182 7523 ft 308 kts 164°
2026-04-23 19:01 53.65556 10.15415 8399 ft 311 kts 158°
2026-04-23 19:02 53.64206 10.16368 8998 ft 313 kts 156°
2026-04-23 19:02 53.61552 10.18347 10172 ft 316 kts 155°
2026-04-23 19:02 53.59507 10.19909 10673 ft 333 kts 155°
2026-04-23 19:02 53.57324 10.21574 10925 ft 356 kts 155°
2026-04-23 19:03 53.54987 10.23340 11151 ft 378 kts 155°
2026-04-23 19:03 53.52488 10.24866 11689 ft 387 kts 167°
2026-04-23 19:03 53.49837 10.25789 12399 ft 391 kts 168°
2026-04-23 19:03 53.47153 10.26701 13137 ft 395 kts 168°
2026-04-23 19:04 53.44451 10.27617 13855 ft 398 kts 168°
2026-04-23 19:04 53.41718 10.28545 14513 ft 402 kts 168°
2026-04-23 19:04 53.38965 10.29472 15161 ft 405 kts 168°
2026-04-23 19:04 53.36195 10.30403 15802 ft 407 kts 168°
2026-04-23 19:05 53.33408 10.31345 16448 ft 410 kts 168°
2026-04-23 19:05 53.30602 10.32294 17029 ft 413 kts 169°
2026-04-23 19:05 53.27769 10.33250 17635 ft 416 kts 168°
2026-04-23 19:05 53.24924 10.34208 18239 ft 419 kts 168°
2026-04-23 19:06 53.22057 10.35174 18776 ft 421 kts 168°
2026-04-23 19:06 53.19171 10.36143 19280 ft 424 kts 169°
2026-04-23 19:06 53.16269 10.37116 19776 ft 427 kts 169°
2026-04-23 19:06 53.13346 10.38093 20267 ft 430 kts 169°
2026-04-23 19:07 53.10406 10.39075 20752 ft 432 kts 169°
2026-04-23 19:07 53.07448 10.40062 21230 ft 435 kts 169°
2026-04-23 19:07 53.04507 10.41039 21688 ft 438 kts 169°
2026-04-23 19:07 53.01508 10.42034 22149 ft 441 kts 169°
2026-04-23 19:08 52.98494 10.43034 22615 ft 443 kts 169°
2026-04-23 19:08 52.95459 10.44044 23063 ft 446 kts 169°
2026-04-23 19:08 52.92410 10.45055 23236 ft 448 kts 169°
2026-04-23 19:08 52.89313 10.46078 23261 ft 460 kts 169°
2026-04-23 19:09 52.86142 10.47122 23262 ft 467 kts 169°
2026-04-23 19:09 52.82950 10.48173 23261 ft 468 kts 169°
2026-04-23 19:09 52.79755 10.49226 23263 ft 469 kts 169°
2026-04-23 19:09 52.76547 10.50281 23265 ft 468 kts 168°
2026-04-23 19:10 52.73362 10.51326 23253 ft 467 kts 168°
2026-04-23 19:10 52.70168 10.52374 23255 ft 467 kts 168°
2026-04-23 19:10 52.66970 10.53420 23263 ft 467 kts 169°
2026-04-23 19:10 52.63783 10.54459 23260 ft 467 kts 169°
2026-04-23 19:11 52.60594 10.55497 23272 ft 467 kts 168°
2026-04-23 19:11 52.57404 10.56534 23253 ft 468 kts 168°
2026-04-23 19:11 52.54212 10.57570 23239 ft 468 kts 168°
2026-04-23 19:11 52.51004 10.58609 23231 ft 468 kts 168°
2026-04-23 19:12 52.48888 10.59295 23236 ft 468 kts 168°
2026-04-23 19:12 52.44615 10.60679 23232 ft 468 kts 168°
2026-04-23 19:12 52.41422 10.61719 23234 ft 468 kts 168°
2026-04-23 19:12 52.38267 10.62747 23233 ft 468 kts 168°
2026-04-23 19:13 52.35070 10.63783 23235 ft 468 kts 168°
2026-04-23 19:13 52.31875 10.64813 23232 ft 468 kts 168°
2026-04-23 19:13 52.28679 10.65839 23238 ft 468 kts 168°
2026-04-23 19:13 52.25482 10.66866 23240 ft 468 kts 168°
2026-04-23 19:14 52.22290 10.67892 23242 ft 468 kts 168°
2026-04-23 19:14 52.19096 10.68917 23248 ft 468 kts 168°
2026-04-23 19:14 52.15904 10.69935 23249 ft 467 kts 168°
2026-04-23 19:14 52.12722 10.70948 22856 ft 463 kts 168°
2026-04-23 19:15 52.09577 10.71949 22107 ft 459 kts 168°
2026-04-23 19:15 52.06514 10.73289 21403 ft 453 kts 156°
2026-04-23 19:15 52.03781 10.75754 20734 ft 446 kts 141°
2026-04-23 19:15 52.01565 10.79203 20092 ft 438 kts 126°
2026-04-23 19:16 51.99878 10.83273 19430 ft 433 kts 120°
2026-04-23 19:16 51.98275 10.87392 18778 ft 431 kts 119°
2026-04-23 19:16 51.96678 10.91496 18094 ft 428 kts 120°
2026-04-23 19:17 51.93519 10.99603 17246 ft 425 kts 120°
2026-04-23 19:17 51.91938 11.03635 17066 ft 421 kts 120°
2026-04-23 19:17 51.90371 11.07616 16421 ft 418 kts 120°
2026-04-23 19:17 51.88809 11.11565 15801 ft 415 kts 120°
2026-04-23 19:18 51.87257 11.15486 15191 ft 412 kts 120°
2026-04-23 19:18 51.85722 11.19375 14590 ft 409 kts 120°
2026-04-23 19:18 51.84200 11.23232 14023 ft 406 kts 120°
2026-04-23 19:18 51.82686 11.27062 13367 ft 403 kts 120°
2026-04-23 19:19 51.79682 11.34643 12079 ft 398 kts 120°
2026-04-23 19:19 51.78192 11.38385 11488 ft 395 kts 120°
2026-04-23 19:20 51.75726 11.44565 10980 ft 391 kts 120°
2026-04-23 19:20 51.74260 11.48234 10360 ft 388 kts 120°
2026-04-23 19:20 51.72808 11.51861 10025 ft 377 kts 120°
2026-04-23 19:20 51.71413 11.55333 9880 ft 360 kts 120°
2026-04-23 19:21 51.70077 11.58646 9753 ft 345 kts 120°
2026-04-23 19:21 51.67746 11.65027 9498 ft 314 kts 106°
2026-04-23 19:21 51.67031 11.68277 9374 ft 303 kts 105°
2026-04-23 19:22 51.66334 11.71433 9136 ft 296 kts 105°
2026-04-23 19:22 51.65652 11.74509 8801 ft 294 kts 105°
2026-04-23 19:22 51.64282 11.80666 8219 ft 291 kts 105°
2026-04-23 19:23 51.63592 11.83776 8223 ft 292 kts 105°
2026-04-23 19:23 51.62922 11.86813 8225 ft 292 kts 105°
2026-04-23 19:23 51.62240 11.89896 8225 ft 292 kts 105°
2026-04-23 19:24 51.60869 11.96058 8228 ft 293 kts 105°
2026-04-23 19:24 51.60178 11.99137 8226 ft 292 kts 105°
2026-04-23 19:24 51.58797 12.05285 8222 ft 292 kts 105°
2026-04-23 19:25 51.57411 12.11432 8222 ft 293 kts 106°
2026-04-23 19:25 51.56021 12.17580 8203 ft 292 kts 105°
2026-04-23 19:26 51.55145 12.23827 7441 ft 283 kts 91°
2026-04-23 19:26 51.55086 12.26969 7049 ft 280 kts 84°
2026-04-23 19:27 51.55366 12.33166 6246 ft 277 kts 82°
2026-04-23 19:27 51.55825 12.42332 5064 ft 271 kts 82°
2026-04-23 19:28 51.56147 12.48336 4243 ft 269 kts 83°
2026-04-23 19:28 51.56395 12.54305 3411 ft 267 kts 87°
2026-04-23 19:29 51.55952 12.57200 3046 ft 271 kts 118°
2026-04-23 19:29 51.52882 12.60433 3014 ft 275 kts 171°
2026-04-23 19:30 51.49106 12.61264 2999 ft 275 kts 175°
2026-04-23 19:30 51.47202 12.61638 3003 ft 275 kts 175°
2026-04-23 19:30 51.43875 12.59749 3008 ft 258 kts 240°
2026-04-23 19:31 51.43369 12.57110 3015 ft 247 kts 277°
2026-04-23 19:31 51.43884 12.54554 3016 ft 242 kts 298°
2026-04-23 19:31 51.44413 12.51985 3014 ft 246 kts 279°
2026-04-23 19:31 51.44408 12.49334 3001 ft 228 kts 269°
2026-04-23 19:32 51.44282 12.46930 2901 ft 207 kts 269°
2026-04-23 19:32 51.44173 12.44694 2690 ft 194 kts 270°
2026-04-23 19:32 51.44072 12.42626 2416 ft 178 kts 270°
2026-04-23 19:32 51.43978 12.40741 2181 ft 162 kts 271°
2026-04-23 19:33 51.43900 12.38969 1952 ft 158 kts 271°
2026-04-23 19:33 51.43825 12.37248 1750 ft 148 kts 271°
2026-04-23 19:33 51.43699 12.34266 1450 ft 130 kts 271°
2026-04-23 19:34 51.43640 12.32844 1235 ft 128 kts 270°
2026-04-23 19:34 51.43579 12.31402 1018 ft 133 kts 268°
2026-04-23 19:34 51.43436 12.28429 695 ft 132 kts 266°
2026-04-23 19:35 51.43376 12.26974 548 ft 131 kts 266°
2026-04-23 19:35 51.43311 12.25562 458 ft 117 kts 266°
2026-04-23 19:35 51.43263 12.24504 447 ft 73 kts 265°
2026-04-23 19:35 51.43234 12.23984 439 ft 31 kts 258°
2026-04-23 19:36 51.43154 12.23694 450 ft 27 kts 237°
2026-04-23 19:36 51.43055 12.23471 447 ft 5 kts 224°
2026-04-23 19:36 51.43040 12.23454 447 ft 3 kts 209°
2026-04-23 19:36 51.42990 12.23436 444 ft 12 kts 180°
2026-04-23 19:37 51.42902 12.23396 432 ft 17 kts 243°
2026-04-23 19:37 51.42888 12.23179 439 ft 21 kts 265°
2026-04-23 19:37 51.42877 12.22934 435 ft 23 kts 266°
2026-04-23 19:37 51.42866 12.22680 440 ft 23 kts 265°
2026-04-23 19:38 51.42852 12.22409 437 ft 26 kts 265°
2026-04-23 19:38 51.42839 12.22121 435 ft 27 kts 265°
2026-04-23 19:38 51.42823 12.21806 429 ft 27 kts 265°
2026-04-23 19:38 51.42809 12.21510 429 ft 25 kts 265°
2026-04-23 19:39 51.42804 12.21393 424 ft 3 kts 266°
2026-04-23 19:39 51.42803 12.21377 431 ft 0 kts 266°
2026-04-23 19:41 51.42801 12.21339 419 ft 8 kts 266°
2026-04-23 19:41 51.42781 12.21247 420 ft 10 kts 223°
2026-04-23 19:42 51.42717 12.21216 434 ft 9 kts 192°
2026-04-23 19:42 51.42662 12.21196 425 ft 5 kts 194°
2026-04-23 19:42 51.42638 12.21184 431 ft 7 kts 198°
2026-04-23 19:42 51.42569 12.21150 435 ft 16 kts 196°
2026-04-23 19:43 51.42440 12.21093 442 ft 21 kts 195°
2026-04-23 19:43 51.42286 12.21026 429 ft 25 kts 195°
2026-04-23 19:43 51.42106 12.20948 428 ft 23 kts 195°
2026-04-23 19:43 51.42001 12.20938 421 ft 14 kts 142°
2026-04-23 19:44 51.41969 12.21078 428 ft 14 kts 105°
2026-04-23 19:44 51.41942 12.21241 432 ft 17 kts 105°
2026-04-23 19:44 51.41911 12.21417 432 ft 15 kts 105°
2026-04-23 19:44 51.41887 12.21557 435 ft 11 kts 105°
2026-04-23 19:45 51.41870 12.21659 440 ft 8 kts 105°
2026-04-23 19:45 51.41853 12.21759 440 ft 11 kts 105°
2026-04-23 19:45 51.41843 12.21828 442 ft 3 kts 89°
2026-04-23 19:45 51.41877 12.21860 441 ft 9 kts
2026-04-23 19:46 51.41922 12.21876 438 ft 0 kts 16°
2026-04-23 19:46 51.41926 12.21878 441 ft 1 kts 16°
2026-04-23 19:46 51.41927 12.21878 441 ft 0 kts 16°